Volver al catálogo

STARLINK-32169

ActivoComunicacionesVLEO
NORAD 60589·PAYLOAD·🇺🇸 United States

Lanzado Aug 20, 2024 desde Cape Canaveral Space Force Station

Loading…

Próximos Pases (próximas 24 horas)

TLE

ActualizadoSource: CelesTrak SupGP

Época: Sep 14, 2026, 20:57 UTC

1 60589C 24150G   26257.87340278 -.00045158  00000+0 -13339-2 0  2573
2 60589  53.1587 147.8259 0001371  98.6050 233.2466 15.34419868    11

Sigue STARLINK-32169 en tiempo real con AllMySat

Download on the App Store